Change the Weather History Date:

Saturday, April 6, 2013

  Actual Average Record
Temperature  
Mean Temperature 51 °F 44 °F  
Max Temperature 68 °F 58 °F 86 °F (1991)
Min Temperature 33 °F 29 °F 2 °F (1936)
Degree Days  
Heating Degree Days 14 21  
Month to date heating degree days 99 132  
Since 1 July heating degree days 5437 5873  
Cooling Degree Days 0 0  
Month to date cooling degree days 0 0  
Year to date cooling degree days 0 0  
Moisture  
Dew Point 30 °F    
Average Humidity 59    
Maximum Humidity 92    
Minimum Humidity 25    
Precipitation  
Precipitation 0.00 in 0.06 in 1.23 in (1938)
Month to date precipitation T 0.30  
Year to date precipitation 0.75 2.31  
Snow  
Snow 0.00 in 0.30 in 10.00 in (1938)
Month to date snowfall 0.0 1.5  
Since 1 July snowfall 22.9 37.7  
Snow Depth 0.00 in    
Sea Level Pressure  
Sea Level Pressure 29.78 in    
Wind  
Wind Speed 10 mph (WNW)    
Max Wind Speed 20 mph    
Max Gust Speed 29 mph    
Visibility 10 miles    
Events      
T = Trace of Precipitation, MM = Missing Value Source: NWS Daily Summary

Daily Weather History Graph

Daily Weather History Graph

Search for Another Location

Airport or City:

Trip Planner

Search our weather history database for the weather conditions in past years. The results will help you decide how hot, cold, wet, or windy it might be!

Date:

Astronomy

Apr. 06, 2013 Rise Set
Actual Time 6:28 AM MDT 7:25 PM MDT
Civil Twilight 5:59 AM MDT 7:54 PM MDT
Nautical Twilight 5:26 AM MDT 8:28 PM MDT
Astronomical Twilight 4:51 AM MDT 9:03 PM MDT
Moon 4:16 AM MDT 3:54 PM MDT
Length of Visible Light 13h 54m
Length of Day
12h 57m
Waning Crescent, 14% of the Moon is Illuminated
Apr 6
Waning Crescent
Apr 10
New
Apr 18
First Quarter
Apr 25
Full
May 2
Last Quarter

Hourly Weather History & Observations

Time (MDT) Temp. Windchill Dew Point Humidity Pressure Visibility Wind Dir Wind Speed Gust Speed Precip Events Conditions
12:53 AM 46.0 °F 39.6 °F 37.0 °F 71% 29.74 in 10.0 mi WNW 15.0 mph - N/A   Clear
1:53 AM 45.0 °F 38.5 °F 37.0 °F 74% 29.74 in 10.0 mi WNW 13.8 mph - N/A   Clear
2:53 AM 43.0 °F 36.8 °F 35.1 °F 74% 29.75 in 10.0 mi WNW 11.5 mph - N/A   Clear
3:53 AM 39.9 °F 33.4 °F 34.0 °F 79% 29.78 in 10.0 mi WNW 10.4 mph - N/A   Clear
4:53 AM 37.0 °F 32.4 °F 33.1 °F 86% 29.80 in 10.0 mi WNW 5.8 mph - N/A   Clear
5:53 AM 36.0 °F 29.6 °F 33.1 °F 89% 29.82 in 10.0 mi WNW 8.1 mph - N/A   Clear
6:53 AM 34.0 °F 28.8 °F 30.9 °F 89% 29.84 in 10.0 mi NW 5.8 mph - N/A   Clear
7:53 AM 43.0 °F 36.8 °F 30.9 °F 62% 29.84 in 10.0 mi WNW 11.5 mph - N/A   Clear
8:53 AM 50.0 °F - 30.9 °F 48% 29.83 in 10.0 mi WNW 10.4 mph - N/A   Clear
9:53 AM 55.9 °F - 28.9 °F 36% 29.80 in 10.0 mi West 10.4 mph - N/A   Clear
10:53 AM 61.0 °F - 28.0 °F 29% 29.79 in 10.0 mi WNW 13.8 mph 20.7 mph N/A   Clear
11:53 AM 62.1 °F - 28.9 °F 29% 29.81 in 10.0 mi West 16.1 mph 24.2 mph N/A   Clear
12:53 PM 64.0 °F - 28.9 °F 27% 29.80 in 10.0 mi West 15.0 mph 25.3 mph N/A   Clear
1:53 PM 64.9 °F - 28.0 °F 25% 29.78 in 10.0 mi NW 15.0 mph 19.6 mph N/A   Clear
2:53 PM 64.9 °F - 28.9 °F 26% 29.76 in 10.0 mi NW 11.5 mph - N/A   Clear
3:53 PM 66.9 °F - 30.9 °F 26% 29.75 in 10.0 mi WNW 8.1 mph - N/A   Partly Cloudy
4:53 PM 64.9 °F - 28.0 °F 25% 29.76 in 10.0 mi Variable 5.8 mph - N/A   Clear
5:53 PM 64.9 °F - 28.0 °F 25% 29.75 in 10.0 mi Calm Calm - N/A   Overcast
6:53 PM 63.0 °F - 27.0 °F 26% 29.77 in 10.0 mi WSW 19.6 mph 23.0 mph N/A   Scattered Clouds
7:53 PM 57.0 °F - 26.1 °F 30% 29.77 in 10.0 mi WSW 8.1 mph - N/A   Clear
8:53 PM 52.0 °F - 24.1 °F 34% 29.78 in 10.0 mi NW 3.5 mph - N/A   Clear
9:53 PM 48.9 °F - 26.1 °F 41% 29.78 in 10.0 mi NW 8.1 mph - N/A   Clear
10:53 PM 50.0 °F - 28.0 °F 43% 29.75 in 10.0 mi NW 6.9 mph - N/A   Clear
11:53 PM 51.1 °F - 28.0 °F 41% 29.73 in 10.0 mi NNW 4.6 mph - N/A   Clear